Location: Charleville
(26.4021°S, 146.2454°E)
Time: 03:14:02
(UTC+10:00)

N. Korean satellite - Pass Details

Date: 04 December 2021
Orbit: 446 x 491 km, 97.3° (Epoch: 19 January)

Event Time Altitude Azimuth Distance (km) Brightness Sun altitude
Rises 04:06:03 0° 44° (NE) 2,462 10.3 -14.1°
Reaches altitude 10° 04:08:33 10° 65° (ENE) 1,607 9.6 -13.6°
Maximum altitude 04:10:52 17° 107° (ESE) 1,250 9.7 -13.2°
Drops below altitude 10° 04:13:13 10° 149° (SSE) 1,640 10.3 -12.7°
Sets 04:15:49 0° 169° (S) 2,538 10.9 -12.3°
